AC0YE Weather Reports


time (UTC)temp
F
wind
direction
speed
knots
gust
knots
rain 1hr
in
rain 24hr
in
rain mn
in
humidity
%
barometer
mb
20260906091016 71 0.0 1.7 0.00 0.00 0.00 94 1017.6
20260906090515 71 0.0 0.9 0.00 0.00 0.00 93 1017.5
20260906090015 71 0.0 1.7 0.00 0.00 0.00 93 1017.5
20260906085516 71 90 0.9 3.5 0.00 0.00 0.00 93 1017.5
20260906085015 72 113 0.9 4.3 0.00 0.00 0.00 93 1017.4
20260906084515 72 90 0.9 3.5 0.00 0.00 0.00 93 1017.6
20260906084035 72 90 0.9 2.6 0.00 0.00 0.00 93 1017.5
20260906083535 72 113 0.9 5.2 0.00 0.00 0.00 93 1017.5
20260906083015 72 90 0.9 1.7 0.00 0.00 0.00 93 1017.6
20260906082515 72 90 0.9 6.1 0.00 0.00 0.00 93 1017.5
20260906082035 72 68 0.9 5.2 0.00 0.00 0.00 93 1017.6
20260906081515 72 90 1.7 7.0 0.00 0.00 0.00 93 1017.6
20260906081015 72 90 0.9 6.1 0.00 0.00 0.00 93 1017.6
20260906080515 72 90 0.9 3.5 0.00 0.00 0.00 93 1017.8
20260906080015 72 0.0 1.7 0.00 0.00 0.00 93 1017.8
20260906075515 72 0.0 2.6 0.00 0.00 0.00 93 1017.6
20260906075015 72 90 0.9 3.5 0.00 0.00 0.00 93 1017.8
20260906074515 72 0.0 1.7 0.00 0.00 0.00 93 1017.9
20260906074015 72 0.0 1.7 0.00 0.00 0.00 93 1017.7
20260906073515 72 68 0.9 2.6 0.00 0.00 0.00 93 1017.8
20260906073035 72 90 0.9 2.6 0.00 0.00 0.00 93 1017.8
20260906072515 72 0.0 1.7 0.00 0.00 0.00 93 1017.8
20260906072015 72 68 0.9 3.5 0.00 0.00 0.00 92 1018.0
20260906071515 72 0.0 2.6 0.00 0.00 0.00 92 1018.0
20260906071017 72 45 0.9 6.1 0.00 0.00 0.00 92 1018.1
20260906070517 72 68 0.9 6.1 0.00 0.00 0.00 92 1018.1
20260906070017 72 0.0 1.7 0.00 0.00 0.00 92 1018.1
20260906065517 72 68 0.9 3.5 0.00 0.00 0.00 92 1018.1
20260906065037 72 0.0 2.6 0.00 0.00 0.00 92 1018.2
20260906064517 73 0.0 1.7 0.00 0.00 0.00 92 1018.1
20260906064017 73 45 0.9 4.3 0.00 0.00 0.00 92 1018.1
20260906063517 73 68 0.9 3.5 0.00 0.00 0.00 92 1018.2
20260906063017 73 0.0 2.6 0.00 0.00 0.00 92 1018.2
20260906062517 73 0.0 3.5 0.00 0.00 0.00 92 1018.2
20260906062017 73 0.0 3.5 0.00 0.00 0.00 92 1018.2
20260906061517 73 0.0 1.7 0.00 0.00 0.00 92 1018.1
20260906061017 73 0.0 0.9 0.00 0.00 0.00 92 1018.0
20260906060537 73 0.0 0.9 0.00 0.00 0.00 92 1018.0
20260906060017 73 0.0 0.9 0.00 0.00 0.00 92 1017.9
20260906055517 73 0.0 1.7 0.00 0.00 0.00 92 1018.0
20260906055017 73 0.0 2.6 0.00 0.00 0.00 92 1018.0
20260906054517 73 0.0 1.7 0.00 0.00 0.00 92 1017.8
20260906054017 73 0.0 1.7 0.00 0.00 0.00 92 1017.9
20260906053517 73 45 0.9 2.6 0.00 0.00 0.00 92 1017.8
20260906053017 73 0.0 2.6 0.00 0.00 0.00 92 1017.8
20260906052517 73 0.0 1.7 0.00 0.00 0.00 92 1017.7
20260906052017 73 45 0.9 3.5 0.00 0.00 0.00 92 1017.9
20260906051517 74 68 0.9 4.3 0.00 0.00 0.00 92 1017.7
20260906051037 74 45 0.9 3.5 0.00 0.00 0.00 91 1017.6
20260906050537 74 0.0 1.7 0.00 0.00 0.00 91 1017.8
20260906050017 74 0.0 1.7 0.00 0.00 0.00 91 1017.5
20260906045515 74 45 0.9 2.6 0.00 0.00 0.00 91 1017.7
20260906045015 74 45 0.9 3.5 0.00 0.00 0.00 91 1017.7
20260906044516 74 45 1.7 3.5 0.00 0.00 0.00 90 1017.8
20260906044015 74 45 0.9 4.3 0.00 0.00 0.00 90 1017.8
20260906043517 74 68 0.9 2.6 0.00 0.00 0.00 90 1017.7
20260906043017 74 45 0.9 3.5 0.00 0.00 0.00 90 1017.6
20260906042517 74 45 1.7 4.3 0.00 0.00 0.00 90 1017.8
20260906042037 74 45 1.7 3.5 0.00 0.00 0.00 89 1017.7
20260906041517 75 23 0.9 1.7 0.00 0.00 0.00 89 1017.6
20260906041017 75 0.0 2.6 0.00 0.00 0.00 89 1017.6
20260906040517 75 0.0 0.0 0.00 0.00 0.00 89 1017.5
20260906040017 75 0.0 0.0 0.00 0.00 0.00 89 1017.4
20260906035537 75 0.0 1.7 0.00 0.00 0.00 89 1017.3
20260906035017 75 0.0 2.6 0.00 0.00 0.00 89 1017.3
20260906034515 75 68 0.9 2.6 0.00 0.00 0.00 89 1017.4
20260906034017 75 45 0.9 3.5 0.00 0.00 0.00 89 1017.4
20260906033517 75 68 0.9 2.6 0.00 0.00 0.00 88 1017.3
20260906033017 75 68 0.9 2.6 0.00 0.00 0.00 88 1017.1
20260906032517 75 45 0.9 4.3 0.00 0.00 0.00 88 1017.2
20260906032017 75 68 0.9 4.3 0.00 0.00 0.00 88 1017.2
20260906031517 75 68 0.9 3.5 0.00 0.00 0.00 88 1017.2
20260906031017 76 45 1.7 4.3 0.00 0.00 0.00 88 1017.2
20260906030517 76 0.0 1.7 0.00 0.00 0.00 88 1017.2
20260906030017 76 23 0.9 3.5 0.00 0.00 0.00 88 1017.2
20260906025557 76 23 0.9 2.6 0.00 0.00 0.00 88 1017.1
20260906025017 76 68 0.9 2.6 0.00 0.00 0.00 88 1017.1
20260906024517 76 68 0.9 1.7 0.00 0.00 0.00 87 1016.9
20260906024017 76 45 0.9 4.3 0.00 0.00 0.00 87 1016.7
20260906023517 76 68 0.9 3.5 0.00 0.00 0.00 87 1016.5
20260906023037 77 45 0.9 2.6 0.00 0.00 0.00 87 1016.5
20260906022537 77 45 1.7 3.5 0.00 0.00 0.00 86 1016.4
20260906022017 77 68 0.9 5.2 0.00 0.00 0.00 86 1016.5
20260906021517 77 68 0.9 3.5 0.00 0.00 0.00 86 1016.3
20260906021037 77 68 0.9 5.2 0.00 0.00 0.00 86 1016.1
20260906020517 77 45 1.7 4.3 0.00 0.00 0.00 86 1016.0
20260906020017 77 45 0.9 4.3 0.00 0.00 0.00 87 1015.9
20260906015557 77 68 0.9 3.5 0.00 0.00 0.00 87 1015.8
20260906015017 77 0.0 1.7 0.00 0.00 0.00 87 1015.7
20260906014517 77 0.0 3.5 0.00 0.00 0.00 87 1015.7
20260906014017 78 0.0 1.7 0.00 0.00 0.00 86 1015.6
20260906013517 78 45 0.9 4.3 0.00 0.00 0.00 86 1015.6
20260906013017 78 68 0.9 3.5 0.00 0.00 0.00 86 1015.6
20260906012517 78 68 1.7 4.3 0.00 0.00 0.00 86 1015.5
20260906012017 78 68 1.7 3.5 0.00 0.00 0.00 86 1015.6
20260906011517 78 68 0.9 3.5 0.00 0.00 0.00 85 1015.5
20260906011017 79 90 1.7 6.1 0.00 0.00 0.00 85 1015.5
20260906010517 79 90 0.9 6.1 0.00 0.00 0.00 85 1015.4
20260906010017 79 68 1.7 3.5 0.00 0.00 0.00 84 1015.4
20260906005517 79 68 0.9 4.3 0.00 0.00 0.00 84 1015.5
20260906005017 79 68 0.9 4.3 0.00 0.00 0.00 84 1015.4
20260906004517 79 0.0 0.9 0.00 0.00 0.00 84 1015.4
20260906004017 79 0.0 1.7 0.00 0.00 0.00 83 1015.3
20260906003517 79 90 0.9 2.6 0.00 0.00 0.00 83 1015.2
20260906003017 79 0.0 0.9 0.00 0.00 0.00 83 1015.1
20260906002517 80 90 0.9 1.7 0.00 0.00 0.00 83 1015.2
20260906002017 80 0.0 1.7 0.00 0.00 0.00 82 1015.2
20260906001537 80 45 0.9 3.5 0.00 0.00 0.00 82 1015.2
20260906001017 80 45 0.9 3.5 0.00 0.00 0.00 82 1015.2
20260906000517 80 45 0.9 4.3 0.00 0.00 0.00 82 1015.1
20260906000017 80 90 0.9 2.6 0.00 0.00 0.00 81 1015.2
20260905235517 81 45 0.9 1.7 0.00 0.00 0.00 81 1015.3
20260905235017 81 68 1.7 5.2 0.00 0.00 0.00 81 1015.3
20260905234517 81 45 2.6 8.7 0.00 0.00 0.00 81 1015.2
20260905234017 81 45 1.7 6.1 0.00 0.00 0.00 81 1015.1
20260905233517 81 68 2.6 5.2 0.00 0.00 0.00 80 1015.1
20260905233017 82 45 1.7 4.3 0.00 0.00 0.00 80 1015.1
20260905232517 82 68 4.3 9.6 0.00 0.00 0.00 79 1015.1
20260905232017 82 45 3.5 7.8 0.00 0.00 0.00 79 1015.0
20260905231517 83 68 3.5 7.0 0.00 0.00 0.00 78 1015.1
20260905231017 83 68 2.6 7.0 0.00 0.00 0.00 79 1015.1
20260905230537 83 68 3.5 8.7 0.00 0.00 0.00 79 1015.1
20260905230017 84 45 4.3 8.7 0.00 0.00 0.00 79 1015.1
20260905225516 84 45 3.5 7.0 0.00 0.00 0.00 79 1015.0
20260905225017 84 45 4.3 8.7 0.00 0.00 0.00 78 1015.0
20260905224517 84 45 4.3 9.6 0.00 0.00 0.00 78 1014.8
20260905224017 84 45 5.2 9.6 0.00 0.00 0.00 78 1015.0
20260905223516 85 45 5.2 11.3 0.00 0.00 0.00 79 1014.9
20260905223037 85 45 3.5 10.4 0.00 0.00 0.00 78 1014.8
20260905222517 85 68 4.3 9.6 0.00 0.00 0.00 78 1014.9
20260905222017 86 45 4.3 8.7 0.00 0.00 0.00 78 1014.8
20260905221517 86 45 3.5 8.7 0.00 0.00 0.00 78 1014.8
20260905221017 86 45 3.5 7.0 0.00 0.00 0.00 78 1014.9
20260905220517 86 45 5.2 10.4 0.00 0.00 0.00 78 1014.9
20260905220017 86 45 3.5 7.8 0.00 0.00 0.00 79 1014.8
20260905215517 86 45 3.5 7.8 0.00 0.00 0.00 78 1014.8
20260905215017 86 68 5.2 13.0 0.00 0.00 0.00 78 1014.8
20260905214516 87 23 5.2 13.0 0.00 0.00 0.00 77 1014.9
20260905214017 87 45 4.3 10.4 0.00 0.00 0.00 77 1015.0
20260905213516 88 45 4.3 9.6 0.00 0.00 0.00 76 1015.0
20260905213017 88 45 3.5 7.8 0.00 0.00 0.00 77 1014.9
20260905212517 88 45 3.5 6.1 0.00 0.00 0.00 76 1015.0
20260905212017 88 68 3.5 10.4 0.00 0.00 0.00 75 1014.9
20260905211517 88 45 2.6 5.2 0.00 0.00 0.00 74 1015.0
20260905211016 89 45 4.3 11.3 0.00 0.00 0.00 74 1015.0
20260905210537 89 23 3.5 7.8 0.00 0.00 0.00 74 1015.0
20260905210016 89 23 3.5 8.7 0.00 0.00 0.00 75 1015.1
20260905205517 89 45 4.3 8.7 0.00 0.00 0.00 75 1015.1
20260905205016 89 23 3.5 7.8 0.00 0.00 0.00 75 1015.1
20260905204517 89 23 3.5 7.0 0.00 0.00 0.00 75 1014.9
20260905204036 88 45 4.3 7.0 0.00 0.00 0.00 75 1015.0
20260905203537 89 23 2.6 6.1 0.00 0.00 0.00 75 1015.0
20260905203016 89 23 3.5 7.8 0.00 0.00 0.00 74 1015.2
20260905202516 89 23 2.6 8.7 0.00 0.00 0.00 76 1015.2
20260905202016 89 0 0.9 6.1 0.00 0.00 0.00 76 1015.2
20260905201517 89 45 3.5 7.8 0.00 0.00 0.00 75 1015.1
20260905201017 89 45 2.6 6.1 0.00 0.00 0.00 74 1015.0
20260905200536 90 23 0.9 3.5 0.00 0.00 0.00 74 1015.0
20260905200037 90 23 2.6 8.7 0.00 0.00 0.00 73 1015.1
20260905195516 90 338 0.9 5.2 0.00 0.00 0.00 75 1015.1
20260905195016 90 23 3.5 7.0 0.00 0.00 0.00 74 1015.1
20260905194516 90 45 2.6 5.2 0.00 0.00 0.00 74 1015.3
20260905194017 90 45 1.7 6.1 0.00 0.00 0.00 76 1015.1
20260905193536 89 45 3.5 9.6 0.00 0.00 0.00 76 1015.4
20260905193016 89 45 2.6 7.0 0.00 0.00 0.00 76 1015.6
20260905192516 88 45 3.5 6.1 0.00 0.00 0.00 76 1015.7
20260905192016 88 23 2.6 6.1 0.00 0.00 0.00 77 1015.7
20260905191516 88 45 3.5 7.8 0.00 0.00 0.00 77 1015.7
20260905191016 89 45 2.6 7.0 0.00 0.00 0.00 77 1015.7
20260905190517 88 45 3.5 8.7 0.00 0.00 0.00 77 1015.7
20260905190016 89 45 2.6 5.2 0.00 0.00 0.00 76 1015.7
20260905185516 89 45 3.5 6.1 0.00 0.00 0.00 76 1015.6
20260905185016 89 45 2.6 5.2 0.00 0.00 0.00 76 1015.6
20260905184516 89 45 2.6 6.1 0.00 0.00 0.00 76 1015.8
20260905184016 89 45 3.5 7.0 0.00 0.00 0.00 77 1015.8
20260905183516 89 23 2.6 7.8 0.00 0.00 0.00 76 1015.8
20260905183017 89 23 0.9 3.5 0.00 0.00 0.00 76 1015.7
20260905182516 89 45 0.9 4.3 0.00 0.00 0.00 77 1015.8
20260905182036 89 68 1.7 6.1 0.00 0.00 0.00 76 1015.7
20260905181517 89 90 1.7 4.3 0.00 0.00 0.00 76 1015.6
20260905181016 89 68 1.7 6.1 0.00 0.00 0.00 75 1015.7
20260905180517 89 45 2.6 7.0 0.00 0.00 0.00 77 1015.8
20260905180036 88 45 0.9 4.3 0.00 0.00 0.00 77 1015.7
20260905175517 88 45 2.6 6.1 0.00 0.00 0.00 77 1015.7
20260905175016 88 45 1.7 4.3 0.00 0.00 0.00 78 1015.6
20260905174516 88 45 2.6 5.2 0.00 0.00 0.00 78 1015.7
20260905174036 88 45 3.5 7.8 0.00 0.00 0.00 78 1015.7
20260905173516 88 45 1.7 6.1 0.00 0.00 0.00 77 1015.6
20260905173036 88 23 1.7 3.5 0.00 0.00 0.00 77 1015.7
20260905172516 88 23 2.6 5.2 0.00 0.00 0.00 77 1015.7
20260905172036 87 68 2.6 7.0 0.00 0.00 0.00 78 1015.8
20260905171516 87 68 3.5 7.0 0.00 0.00 0.00 77 1015.8
20260905171036 88 68 2.6 6.1 0.00 0.00 0.00 77 1015.8
20260905170516 87 23 1.7 4.3 0.00 0.00 0.00 78 1015.9
20260905170016 87 45 2.6 7.0 0.00 0.00 0.00 78 1016.0
20260905165516 87 45 1.7 4.3 0.00 0.00 0.00 78 1015.9
20260905165016 87 45 2.6 6.1 0.00 0.00 0.00 77 1016.0
20260905164516 87 45 2.6 7.0 0.00 0.00 0.00 77 1016.1
20260905164016 87 45 3.5 7.0 0.00 0.00 0.00 78 1016.1
20260905163516 87 45 3.5 7.0 0.00 0.00 0.00 79 1016.0
20260905163016 87 68 1.7 4.3 0.00 0.00 0.00 79 1016.1
20260905162516 86 45 3.5 8.7 0.00 0.00 0.00 78 1016.1
20260905162017 86 45 3.5 7.0 0.00 0.00 0.00 78 1016.2
20260905161516 86 45 3.5 8.7 0.00 0.00 0.00 78 1016.1
20260905161016 86 45 3.5 7.8 0.00 0.00 0.00 78 1016.1
20260905160516 86 45 2.6 6.1 0.00 0.00 0.00 78 1016.0
20260905160016 86 68 2.6 7.0 0.00 0.00 0.00 77 1016.1
20260905155516 86 45 1.7 6.1 0.00 0.00 0.00 77 1016.0
20260905155036 86 45 2.6 5.2 0.00 0.00 0.00 78 1016.0
20260905154536 86 45 3.5 7.8 0.00 0.00 0.00 78 1016.0
20260905154016 86 45 3.5 7.0 0.00 0.00 0.00 78 1015.9
20260905153516 85 45 3.5 7.8 0.00 0.00 0.00 78 1016.0
20260905153016 85 68 1.7 6.1 0.00 0.00 0.00 79 1015.9
20260905152516 85 68 3.5 7.8 0.00 0.00 0.00 79 1015.8
20260905152016 85 45 2.6 7.8 0.00 0.00 0.00 79 1015.8
20260905151516 84 45 3.5 7.0 0.00 0.00 0.00 79 1015.8
20260905151016 84 45 3.5 7.8 0.00 0.00 0.00 80 1015.9
20260905150516 84 45 4.3 7.0 0.00 0.00 0.00 80 1015.9
20260905150016 84 45 2.6 5.2 0.00 0.00 0.00 82 1015.8
20260905145516 83 45 2.6 6.1 0.00 0.00 0.00 82 1015.6
20260905145016 83 45 3.5 9.6 0.00 0.00 0.00 83 1015.6
20260905144516 83 45 3.5 6.1 0.00 0.00 0.00 83 1015.6
20260905144016 82 23 2.6 6.1 0.00 0.00 0.00 84 1015.6
20260905143536 82 23 3.5 7.0 0.00 0.00 0.00 84 1015.6
20260905143036 82 23 2.6 5.2 0.00 0.00 0.00 85 1015.6
20260905142516 81 23 1.7 5.2 0.00 0.00 0.00 86 1015.5
20260905142016 81 23 2.6 7.0 0.00 0.00 0.00 86 1015.6
20260905141516 81 45 1.7 4.3 0.00 0.00 0.00 88 1015.4
20260905141036 81 45 2.6 4.3 0.00 0.00 0.00 88 1015.4
20260905140516 80 45 2.6 5.2 0.00 0.00 0.00 88 1015.3
20260905140016 80 23 1.7 5.2 0.00 0.00 0.00 88 1015.3
20260905135516 80 45 1.7 4.3 0.00 0.00 0.00 89 1015.1
20260905135036 80 45 2.6 5.2 0.00 0.00 0.00 89 1015.2
20260905134516 80 45 1.7 4.3 0.00 0.00 0.00 90 1015.0
20260905134036 79 45 2.6 6.1 0.00 0.00 0.00 90 1015.0
20260905133516 79 45 2.6 5.2 0.00 0.00 0.00 91 1015.0
20260905133016 79 45 0.9 2.6 0.00 0.00 0.00 90 1014.9
20260905132516 79 45 0.9 3.5 0.00 0.00 0.00 90 1015.0
20260905132016 79 45 0.9 2.6 0.00 0.00 0.00 90 1014.8
20260905131516 79 0.0 0.9 0.00 0.00 0.00 91 1014.7
20260905131016 78 0.0 1.7 0.00 0.00 0.00 92 1014.6
20260905130536 78 0.0 1.7 0.00 0.00 0.00 93 1014.7
20260905130016 77 0.0 0.9 0.00 0.00 0.00 93 1014.5
20260905125536 77 0.0 1.7 0.00 0.00 0.00 94 1014.4
20260905125016 77 0.0 1.7 0.00 0.00 0.00 94 1014.6
20260905124516 76 0.0 1.7 0.00 0.00 0.00 94 1014.5
20260905124016 76 0.0 1.7 0.00 0.00 0.00 95 1014.5
20260905123516 76 23 0.9 1.7 0.00 0.00 0.00 95 1014.5
20260905123016 75 45 0.9 3.5 0.00 0.00 0.00 95 1014.5
20260905122515 75 45 1.7 5.2 0.00 0.00 0.00 96 1014.5
20260905122036 75 0.0 1.7 0.00 0.00 0.00 97 1014.5
20260905121515 75 0.0 1.7 0.00 0.00 0.00 97 1014.4
20260905121015 75 0.0 0.9 0.00 0.00 0.00 97 1014.4
20260905120516 74 0.0 0.9 0.00 0.00 0.00 97 1014.3
20260905120016 74 0.0 0.9 0.00 0.00 0.00 97 1014.3
20260905115516 74 0.0 0.9 0.00 0.00 0.00 97 1014.2
20260905115016 74 0.0 0.9 0.00 0.00 0.00 97 1013.7
20260905114516 74 0.0 0.0 0.00 0.00 0.00 97 1013.9
20260905114016 74 0.0 0.0 0.00 0.00 0.00 97 1013.7
20260905113516 74 0.0 0.0 0.00 0.00 0.00 97 1013.6
20260905113035 74 0.0 0.0 0.00 0.00 0.00 97 1013.8
20260905112516 74 0.0 0.0 0.00 0.00 0.00 97 1013.9
20260905112016 74 0.0 0.0 0.00 0.00 0.00 97 1013.7
20260905111556 74 0.0 0.0 0.00 0.00 0.00 97 1013.4
20260905111016 74 0.0 0.0 0.00 0.00 0.00 97 1013.3
20260905110516 74 0.0 0.0 0.00 0.00 0.00 97 1013.5
20260905110016 75 0.0 0.0 0.00 0.00 0.00 97 1013.4
20260905105515 75 0.0 0.0 0.00 0.00 0.00 97 1013.4
20260905105016 75 0.0 0.0 0.00 0.00 0.00 97 1013.3
20260905104536 75 0.0 0.0 0.00 0.00 0.00 97 1013.4
20260905104015 75 0.0 0.0 0.00 0.00 0.00 97 1013.3
20260905103515 75 0.0 0.0 0.00 0.00 0.00 97 1013.4
20260905103015 75 0.0 0.9 0.00 0.00 0.00 96 1013.5
20260905102516 75 0.0 0.9 0.00 0.00 0.00 97 1013.4
20260905102015 75 0.0 0.9 0.00 0.00 0.00 97 1013.5
20260905101515 75 0.0 0.9 0.00 0.00 0.00 97 1013.6
20260905101035 75 0.0 0.0 0.00 0.00 0.00 97 1013.5
20260905100515 75 0.0 0.0 0.00 0.00 0.00 97 1013.5
20260905100035 75 0.0 0.0 0.00 0.00 0.00 96 1013.6
20260905095535 75 0.0 0.0 0.00 0.00 0.00 96 1013.6
20260905095015 75 0.0 0.0 0.00 0.00 0.00 96 1013.6
20260905094535 75 0.0 0.0 0.00 0.00 0.00 96 1013.7
20260905094035 75 0.0 0.0 0.00 0.00 0.00 96 1013.7
20260905093515 75 0.0 0.0 0.00 0.00 0.00 96 1013.7
20260905093015 76 0.0 0.0 0.00 0.00 0.00 96 1013.8
20260905092516 76 0.0 0.0 0.00 0.00 0.00 96 1013.8
20260905092015 76 0.0 0.0 0.00 0.00 0.00 96 1013.9
20260905091515 76 0.0 0.0 0.00 0.00 0.00 95 1013.9